Погода в Итанагаре

Индия     27°06′19″N   93°37′37″E
темп.,
°C
ветер,
м/с
пор.,
м/с
влажн.,
%
обл.,
%
осадки,
мм/ч
давл.,
гПа
погр.,
м
13 мая, чт
чт1323:30+19всв2295100 0.0 100768
02:30+20ссв0090100 0.1 100728
05:30+20св1393100 0.5 1008100
08:30+23всв238276 0.7 1009511
11:30+27в3362100 0.9 10081193
14:30+27всв335762 0.8 10051373
17:30+24св4974100 1.2 1004438
20:30+21вюв1192100 1.7 100857
14 мая, пт
пт1423:30+20ссв229487 1.9 100758
02:30+20всв1195100 0.8 100651
05:30+20св259597 1.8 1006276
08:30+21св2386100 0.6 1008460
11:30+26всв326695 1.1 10061274
14:30+26всв446891 1.0 10041040
17:30+21ссв388870 2.9 1005410
20:30+20с229111 0.3 100841
15 мая, сб
сб1523:30+19ссв009246 0.8 100812
02:30+19с1193100 0.4 100720
05:30+19св249299 0.5 1009147
08:30+25всв346619 0.3 1010729
11:30+29в435058 0.6 10081640
14:30+29ссв335367 0.8 10061433
17:30+25ссв23695 0.9 100650
20:30+23с2378100 0.3 100754
16 мая, вс
вс1623:30+22сз117794 0.4 100713
02:30+21зсз1183100 0.3 100712
05:30+22ссв118134 0.3 100816
08:30+29вюв11517 0.0 1010866
11:30+33ююв324231 0.0 10071668
14:30+32ю334490 0.0 10051689
17:30+29вюв115898 0.0 100411
20:30+25ссз21727 0.3 100616
17 мая, пн
пн1723:30+23ссз1180100 1.4 100615
02:30+22с2291100 3.1 100659
05:30+22с129089 3.9 100877
08:30+27св2370100 0.4 1009442
11:30+31св3251100 0.5 10071088
14:30+33св2244100 0.0 10041558
17:30+26ссв2379100 1.0 100366
20:30+23ссз2290100 3.3 100554